Retour au catalogue

DMSP 5D-2 F13 DEB

ActifSSO
NORAD 40473·DEBRIS·🇺🇸 United States

Lancé Mar 24, 1995 depuis Vandenberg Space Force Base

Loading…

Prochains Passages (prochaines 24 heures)

TLE

FraisSource: Space-Track

Époque: Sep 14, 2026, 09:37 UTC

1 40473U 95015BR  26257.40128677  .00001537  00000-0  10017-2 0  9992
2 40473  98.7036  95.8737 0122090 124.8763 236.3952 14.00183886585048

Suivez DMSP 5D-2 F13 DEB en temps réel avec AllMySat

Download on the App Store